Regional Weather Roundup
Issued by NWS

Home | Current Version | Previous Version | Graphics & Text | Print | Product List | Glossary On
Versions: 1 2 3 4 5 6 7 8 9 10 11 12 13 14 15 16 17 18 19 20 21 22 23 24 25 26 27 28 29 30 31 32 33 34 35 36 37 38 39 40 41 42 43 44 45 46 47 48 49 50
000
ASUS43 KMKX 301203
RWRWI

WISCONSIN REGIONAL WEATHER ROUNDUP
NATIONAL WEATHER SERVICE MILWAUKEE/SULLIVAN WI
700 AM CDT SAT MAY 30 2015

NOTE: "FAIR" INDICATES FEW OR NO CLOUDS BELOW 12,000 FEET WITH NO
SIGNIFICANT WEATHER AND/OR OBSTRUCTIONS TO VISIBILITY.

WIZ001-002-006>008-014>016-023>028-301300-
NORTHWEST WISCONSIN

CITY           SKY/WX    TMP DP  RH WIND       PRES   REMARKS
SUPERIOR ARPT  SUNNY     45  37  73 CALM      30.22R
ASHLAND        CLOUDY    48  41  76 N12       30.19R
6HR MIN TEMP:  47; 6HR MAX TEMP:  52;

HAYWARD        CLOUDY    47  40  76 N13       30.17R
6HR MIN TEMP:  45; 6HR MAX TEMP:  50;

SIREN          MOSUNNY   44  37  78 N9        30.19R
CUMBERLAND     MOSUNNY   45  37  76 N14       30.15R
RICE LAKE      PTSUNNY   47  40  78 N10       30.16R
CHETEK         CLOUDY    48  44  85 N7        30.14R
LADYSMITH      CLOUDY    49  46  87 N12       30.14R
EAU CLAIRE     NOT AVBL
MENOMONIE      CLOUDY    51  45  80 N8        30.12R
NEW RICHMOND   PTSUNNY   46  40  82 N3        30.16R
OSCEOLA        MOSUNNY   44  42  93 N8        30.21R
$$

WIZ003>005-009-010-017-018-301300-
NORTH CENTRAL WISCONSIN

CITY           SKY/WX    TMP DP  RH WIND       PRES   REMARKS
MANITOWISH WTR CLOUDY    46  46 100 N8        30.12R
ARBOR VITAE    CLOUDY    49  48  95 N9        30.11R
WOODRUFF       CLOUDY    49  48  95 N9        30.11R
RHINELANDER    CLOUDY    50  47  89 VRB7      30.09R
6HR MIN TEMP:  50; 6HR MAX TEMP:  55; 6HR PCP:  0.03;

EAGLE RIVER    CLOUDY    49  47  96 NE7       30.10R
LAND O LAKES   CLOUDY    48  47  94 N9        30.11R FOG
PHILLIPS       CLOUDY    47  45  92 N12G17    30.11R
TOMAHAWK       CLOUDY    48  47  96 N8        30.09R
MEDFORD        CLOUDY    48  47  97 N10       30.08R
MERRILL        CLOUDY    52  51  97 N7        30.08R
$$

WIZ029-030-035-036-043>047-301300-
CENTRAL WISCONSIN

CITY           SKY/WX    TMP DP  RH WIND       PRES   REMARKS
WAUSAU         CLOUDY    54  49  83 VRB5      30.06R
6HR MIN TEMP:  53; 6HR MAX TEMP:  58; 6HR PCP:  0.03;

MOSINEE        LGT RAIN  54  52  94 NE14      30.07R
MARSHFIELD     LGT RAIN  54  49  83 NE12      30.06R
6HR MIN TEMP:  54; 6HR MAX TEMP:  61; 6HR PCP:  0.01;

STEVENS POINT  DRIZZLE   52  49  89 N12G18    30.05R
WAUPACA        RAIN      55  53  96 NE10G16   30.04R
WAUTOMA        RAIN      54  54 100 NE12      30.03R FOG
WISC RAPIDS    CLOUDY    57  51  80 NE9       30.06R
6HR MIN TEMP:  57; 6HR MAX TEMP:  62; 6HR PCP:  0.56;

CAMP DOUGLAS   RAIN      57  57 100 N9        30.02R FOG
6HR MIN TEMP:  57; 6HR MAX TEMP:  65; 6HR PCP:  0.42;

$$

WIZ011>013-019>022-031-037>040-048>050-301300-
NORTHEAST WISCONSIN

CITY           SKY/WX    TMP DP  RH WIND       PRES   REMARKS
ANTIGO         CLOUDY    51  48  92 N10       30.07R
SHAWANO        DRIZZLE   54  53  94 NE14      30.06R
OCONTO         CLOUDY    51  51 100 N7        30.05R
STURGEON BAY   CLOUDY    50  45  81 N12       30.07R
6HR MIN TEMP:  50; 6HR MAX TEMP:  61;

GREEN BAY      RAIN      53  51  93 NE14      30.05R FOG
6HR MIN TEMP:  53; 6HR MAX TEMP:  65; 6HR PCP:  0.33;

MANITOWOC      LGT RAIN  52  50  93 N15G24    30.03R
APPLETON       LGT RAIN  52  52 100 NE16G26   30.04R FOG
CLINTONVILLE   RAIN      52  50  93 NE7       30.05R
OSHKOSH        LGT RAIN  56  53  90 NE24G32   30.01R FOG
6HR MIN TEMP:  56; 6HR MAX TEMP:  65; 6HR PCP:  0.27;

$$

WIZ032>034-041-042-053>061-301300-
SOUTHWEST WISCONSIN

CITY           SKY/WX    TMP DP  RH WIND       PRES   REMARKS
LA CROSSE      CLOUDY    56  52  86 N12G21    30.05R
6HR MIN TEMP:  56; 6HR MAX TEMP:  66; 6HR PCP:  0.77;

SPARTA         LGT RAIN  54  52  94 N12       30.05R
VIROQUA        CLOUDY    56  56 100 N16       30.01R
BOSCOBEL       CLOUDY    62  58  86 N9        29.98R
6HR MIN TEMP:  62; 6HR MAX TEMP:  67; 6HR PCP:  0.01;

PRAIRIE DU CHI CLOUDY    61  56  85 N13G18    29.98R
PLATTEVILLE    CLOUDY    65  64  96 SW7       29.95R
$$

WIZ056-057-062-063-064-067-068-301300-
SOUTH CENTRAL WISCONSIN

CITY           SKY/WX    TMP DP  RH WIND       PRES   REMARKS
REEDSBURG      CLOUDY    60  59  97 N13       29.97R
BARABOO/DELLS  LGT RAIN  60  58  94 NE12G22   29.97R
LONE ROCK      CLOUDY    63  60  90 N16       29.95R
MINERAL POINT  CLOUDY    64  63  94 SW3       29.95R
MADISON        CLOUDY    67  63  87 SW5       29.94R
6HR MIN TEMP:  65; 6HR MAX TEMP:  67; 6HR PCP: TRACE;

MIDDLETON      CLOUDY    67  65  96 CALM      29.95R
WATERTOWN      LGT RAIN N/A N/A N/A CALM      29.94R
MONROE         CLOUDY    64  61  88 SW8       29.95S
JANESVILLE     NOT AVBL
$$

WIZ051-052-058>065-066-070>072-301300-
SOUTHEAST WISCONSIN

CITY           SKY/WX    TMP DP  RH WIND       PRES   REMARKS
MILWAUKEE      LGT RAIN  51  49  92 N17G25    30.00R FOG
6HR MIN TEMP:  51; 6HR MAX TEMP:  71; 6HR PCP:  0.13;

WAUKESHA       RAIN      54  54 100 NE16G25   30.00R
MILWAUKEE/TIMM HVY RAIN  54  50  87 NE14G21   30.00R
RACINE         LGT RAIN  57  55  93 N15       30.00R FOG
6HR MIN TEMP:  57; 6HR MAX TEMP:  71; 6HR PCP:  0.08;

BURLINGTON     DRIZZLE   64  63  98 CALM      29.96R
KENOSHA        LGT RAIN  67  64  90 SW3       29.98R
6HR MIN TEMP:  66; 6HR MAX TEMP:  70; 6HR PCP:  0.01;

FOND DU LAC    LGT RAIN  57  55  93 NE20      30.01R FOG
6HR MIN TEMP:  57; 6HR MAX TEMP:  65; 6HR PCP:  0.40;

SHEBOYGAN      CLOUDY    52  49  89 NE22G32   30.01R
6HR MIN TEMP:  52; 6HR MAX TEMP:  64; 6HR PCP:  0.35;

WEST BEND      RAIN      54  52  94 NE16      29.99R
JUNEAU         CLOUDY    64  63  96 E6        29.95S
$$

LSZ147-162-301300-
LAKE SUPERIOR

STATION/POSITION TIME  TEMP    WIND        PRES    WAVE
                       AIR SEA DIR/SP/G            HT/PER
                 (UTC) (F)     (DEG/KT/KT) (MB)    (FT/S)
W MID LAKE BUOY  1050   40 37   20/  8/ 10   N/A     1/ 4
DEVILS ISLAND    1100   45      10/ 18/ 21   N/A
PORT WING        1100   46     330/  5/  6   N/A
SAXON HARBOR     1000   49     320/ 11/ 13   N/A
$$

LMZ867-665-643>646-301300-
LAKE MICHIGAN

STATION/POSITION TIME  TEMP    WIND        PRES    WAVE
                       AIR SEA DIR/SP/G            HT/PER
                 (UTC) (F)     (DEG/KT/KT) (MB)    (FT/S)
CHAMBERS ISLAND  1100   52     350/ 11/ 15   N/A
N MID LAKE BUOY  1050   41 37  330/ 12/ 14   N/A     1/ 3
NORTHPORT PIER   1100   51     350/ 18/ 23   N/A
SISTER BAY       1118   50     360/ 15/ 21   N/A
ALGOMA LAKESHORE 1138           10/ 11/ 16   N/A
KEWAUNEE LAKESHO 1100   50      30/ 10/ 13   N/A
SHEBOYGAN LAKESH 1100   49      10/ 16/ 17   N/A
PORT WASHINGTON  1140   53      30/ 13/ 24   N/A
ATWATER BUOY     1100   52      40/ 16/ 19   N/A
MILWAUKEE LAKESH 1100   53      30/ 14/ 15   N/A
S MID LAKE BUOY  1050   47 38  230/  4/  6   N/A     1
KENOSHA   LAKESH 1100   62      70/  3/  4   N/A
$$

TC  - TEMPERATURE IN CELSIUS
VSB - VISIBILITY IN STATUTE MILES
WCI - WIND CHILL INDEX
HX  - HEAT INDEX




USA.gov is the U.S. government's official web portal to all federal, state and local government web resources and services.